WON1897 WAHS-WICC

Flight info

Callsign WON1897
Flight time 1h 11m
Altitude 16000
Route KIDET W16S CA
Aircraft AT76/M-SDFGIRY/S

Departure

Time 2026-04-29 07:39
Airport Jenderal Ahmad Yani Airport (WAHS)

Arrival

Time 2026-04-29 08:50
Airport Husein Sastranegara International Airport (WICC)
Time Latitude Longitude Altitude Speed Heading
2026-04-29 07:26 -6.96911 110.37568 15 ft 0 kts 310°
2026-04-29 07:29 -6.96907 110.37563 15 ft 4 kts 309°
2026-04-29 07:29 -6.96879 110.37525 15 ft 9 kts 311°
2026-04-29 07:29 -6.96827 110.37468 15 ft 12 kts 312°
2026-04-29 07:29 -6.96771 110.37401 15 ft 13 kts 308°
2026-04-29 07:30 -6.96711 110.37331 15 ft 13 kts 310°
2026-04-29 07:30 -6.96655 110.37261 15 ft 12 kts 307°
2026-04-29 07:30 -6.96613 110.37207 15 ft 5 kts 279°
2026-04-29 07:31 -6.96657 110.37163 14 ft 0 kts 220°
2026-04-29 07:31 -6.96698 110.37129 13 ft 12 kts 220°
2026-04-29 07:31 -6.96741 110.37093 10 ft 0 kts 218°
2026-04-29 07:34 -6.96749 110.37087 9 ft 6 kts 218°
2026-04-29 07:34 -6.96795 110.37025 3 ft 13 kts 266°
2026-04-29 07:35 -6.96749 110.36954 3 ft 12 kts 311°
2026-04-29 07:35 -6.96689 110.36880 2 ft 20 kts 309°
2026-04-29 07:35 -6.96577 110.36750 3 ft 23 kts 311°
2026-04-29 07:35 -6.96482 110.36640 1 ft 19 kts 309°
2026-04-29 07:36 -6.96402 110.36544 1 ft 16 kts 311°
2026-04-29 07:36 -6.96333 110.36461 2 ft 15 kts 310°
2026-04-29 07:36 -6.96285 110.36385 1 ft 11 kts 276°
2026-04-29 07:36 -6.96246 110.36340 1 ft 6 kts 19°
2026-04-29 07:37 -6.96251 110.36367 1 ft 0 kts 131°
2026-04-29 07:38 -6.96260 110.36378 1 ft 4 kts 129°
2026-04-29 07:38 -6.96328 110.36464 3 ft 44 kts 133°
2026-04-29 07:38 -6.96682 110.36875 3 ft 108 kts 130°
2026-04-29 07:38 -6.97223 110.37535 319 ft 126 kts 130°
2026-04-29 07:39 -6.97591 110.38318 872 ft 125 kts 106°
2026-04-29 07:39 -6.97948 110.39126 1349 ft 129 kts 121°
2026-04-29 07:39 -6.98414 110.39983 1462 ft 153 kts 117°
2026-04-29 07:39 -6.98874 110.41044 1558 ft 175 kts 114°
2026-04-29 07:40 -6.99385 110.42171 1917 ft 178 kts 116°
2026-04-29 07:40 -6.99897 110.43312 2312 ft 179 kts 114°
2026-04-29 07:40 -6.99979 110.44537 2656 ft 182 kts 69°
2026-04-29 07:40 -6.99171 110.45490 3004 ft 182 kts 33°
2026-04-29 07:41 -6.97973 110.45848 3335 ft 182 kts
2026-04-29 07:41 -6.96706 110.45778 3674 ft 183 kts 346°
2026-04-29 07:41 -6.95702 110.45057 4009 ft 180 kts 302°
2026-04-29 07:41 -6.95296 110.44326 4201 ft 182 kts 297°
2026-04-29 07:42 -6.94871 110.43143 4520 ft 182 kts 269°
2026-04-29 07:42 -6.95296 110.41973 4831 ft 180 kts 238°
2026-04-29 07:42 -6.95964 110.40892 5146 ft 183 kts 238°
2026-04-29 07:42 -6.96846 110.39440 5608 ft 184 kts 239°
2026-04-29 07:43 -6.97296 110.38696 5834 ft 184 kts 238°
2026-04-29 07:43 -6.97769 110.37517 6103 ft 185 kts 270°
2026-04-29 07:43 -6.97362 110.36296 6401 ft 188 kts 298°
2026-04-29 07:43 -6.96638 110.35208 6685 ft 189 kts 312°
2026-04-29 07:44 -6.95716 110.34252 6996 ft 191 kts 315°
2026-04-29 07:44 -6.94776 110.33329 7319 ft 192 kts 314°
2026-04-29 07:44 -6.93870 110.32343 7635 ft 192 kts 310°
2026-04-29 07:44 -6.93076 110.31261 7942 ft 192 kts 299°
2026-04-29 07:45 -6.92412 110.30086 8207 ft 194 kts 300°
2026-04-29 07:45 -6.91706 110.28925 8508 ft 195 kts 302°
2026-04-29 07:45 -6.90976 110.27773 8806 ft 196 kts 302°
2026-04-29 07:45 -6.90240 110.26618 9095 ft 196 kts 302°
2026-04-29 07:46 -6.89501 110.25457 9389 ft 197 kts 302°
2026-04-29 07:46 -6.88759 110.24293 9667 ft 198 kts 302°
2026-04-29 07:46 -6.88012 110.23123 9943 ft 199 kts 302°
2026-04-29 07:46 -6.87264 110.21951 10221 ft 199 kts 302°
2026-04-29 07:47 -6.86511 110.20774 10492 ft 200 kts 302°
2026-04-29 07:47 -6.85758 110.19594 10758 ft 201 kts 302°
2026-04-29 07:47 -6.85008 110.18420 11018 ft 202 kts 302°
2026-04-29 07:47 -6.84248 110.17230 11279 ft 203 kts 302°
2026-04-29 07:48 -6.83484 110.16033 11534 ft 203 kts 302°
2026-04-29 07:48 -6.82719 110.14833 11787 ft 204 kts 302°
2026-04-29 07:48 -6.81949 110.13628 12035 ft 205 kts 302°
2026-04-29 07:48 -6.81174 110.12419 12279 ft 206 kts 302°
2026-04-29 07:49 -6.80400 110.11206 12519 ft 206 kts 302°
2026-04-29 07:49 -6.79621 110.09988 12750 ft 207 kts 302°
2026-04-29 07:49 -6.78840 110.08766 12989 ft 208 kts 302°
2026-04-29 07:49 -6.78058 110.07540 13227 ft 209 kts 302°
2026-04-29 07:50 -6.77269 110.06309 13439 ft 209 kts 302°
2026-04-29 07:50 -6.76491 110.05090 13662 ft 210 kts 302°
2026-04-29 07:50 -6.75699 110.03851 13877 ft 211 kts 302°
2026-04-29 07:50 -6.74905 110.02610 14081 ft 212 kts 302°
2026-04-29 07:51 -6.74109 110.01362 14295 ft 212 kts 302°
2026-04-29 07:51 -6.73306 110.00110 14493 ft 213 kts 302°
2026-04-29 07:51 -6.72502 109.98851 14691 ft 214 kts 302°
2026-04-29 07:51 -6.71699 109.97595 14877 ft 214 kts 302°
2026-04-29 07:52 -6.70891 109.96332 15070 ft 215 kts 302°
2026-04-29 07:52 -6.70080 109.95062 15247 ft 215 kts 302°
2026-04-29 07:52 -6.69267 109.93795 15428 ft 216 kts 302°
2026-04-29 07:52 -6.68453 109.92520 15600 ft 217 kts 302°
2026-04-29 07:53 -6.67635 109.91242 15783 ft 217 kts 302°
2026-04-29 07:53 -6.66817 109.89963 15898 ft 219 kts 302°
2026-04-29 07:53 -6.65981 109.88656 15959 ft 225 kts 302°
2026-04-29 07:53 -6.65124 109.87315 15981 ft 231 kts 302°
2026-04-29 07:54 -6.64245 109.85941 15992 ft 236 kts 302°
2026-04-29 07:54 -6.63349 109.84541 15997 ft 240 kts 302°
2026-04-29 07:54 -6.62436 109.83116 15998 ft 244 kts 302°
2026-04-29 07:54 -6.61512 109.81672 15999 ft 247 kts 302°
2026-04-29 07:55 -6.60579 109.80216 15999 ft 249 kts 302°
2026-04-29 07:55 -6.59640 109.78748 15999 ft 251 kts 302°
2026-04-29 07:55 -6.58705 109.77289 15999 ft 252 kts 302°
2026-04-29 07:55 -6.57754 109.75803 15999 ft 253 kts 302°
2026-04-29 07:56 -6.56802 109.74314 15999 ft 254 kts 302°
2026-04-29 07:56 -6.55842 109.72818 15999 ft 254 kts 302°
2026-04-29 07:56 -6.54883 109.71319 15999 ft 255 kts 302°
2026-04-29 07:56 -6.53922 109.69818 15999 ft 255 kts 302°
2026-04-29 07:57 -6.52959 109.68316 15999 ft 256 kts 302°
2026-04-29 07:57 -6.51998 109.66813 15999 ft 256 kts 302°
2026-04-29 07:57 -6.51031 109.65307 15999 ft 256 kts 302°
2026-04-29 07:57 -6.50065 109.63798 16000 ft 256 kts 302°
2026-04-29 07:58 -6.49101 109.62294 16000 ft 256 kts 302°
2026-04-29 07:58 -6.48136 109.60788 16000 ft 256 kts 302°
2026-04-29 07:58 -6.47171 109.59279 16000 ft 256 kts 302°
2026-04-29 07:58 -6.46203 109.57772 16000 ft 256 kts 302°
2026-04-29 07:59 -6.45239 109.56266 16000 ft 256 kts 302°
2026-04-29 07:59 -6.44270 109.54756 16000 ft 257 kts 302°
2026-04-29 07:59 -6.43316 109.53266 16000 ft 256 kts 302°
2026-04-29 07:59 -6.42347 109.51753 16000 ft 256 kts 302°
2026-04-29 08:00 -6.41379 109.50246 16000 ft 256 kts 302°
2026-04-29 08:00 -6.40410 109.48733 16000 ft 257 kts 302°
2026-04-29 08:00 -6.39443 109.47227 16000 ft 257 kts 302°
2026-04-29 08:00 -6.38477 109.45719 16000 ft 257 kts 302°
2026-04-29 08:01 -6.37510 109.44210 16000 ft 257 kts 302°
2026-04-29 08:01 -6.36542 109.42702 16000 ft 257 kts 302°
2026-04-29 08:01 -6.35576 109.41194 16000 ft 256 kts 302°
2026-04-29 08:01 -6.34620 109.39703 16000 ft 256 kts 302°
2026-04-29 08:02 -6.33653 109.38197 16000 ft 256 kts 302°
2026-04-29 08:02 -6.32684 109.36694 16000 ft 255 kts 304°
2026-04-29 08:02 -6.31397 109.35503 16003 ft 253 kts 327°
2026-04-29 08:02 -6.29884 109.34577 16000 ft 254 kts 329°
2026-04-29 08:03 -6.28347 109.33688 16000 ft 255 kts 330°
2026-04-29 08:03 -6.26796 109.32815 16000 ft 256 kts 330°
2026-04-29 08:03 -6.25236 109.31947 16000 ft 257 kts 330°
2026-04-29 08:03 -6.23670 109.31082 16000 ft 257 kts 330°
2026-04-29 08:04 -6.22102 109.30217 16000 ft 257 kts 331°
2026-04-29 08:04 -6.20530 109.29351 16000 ft 257 kts 330°
2026-04-29 08:04 -6.18957 109.28485 16000 ft 258 kts 331°
2026-04-29 08:04 -6.17383 109.27618 16000 ft 258 kts 330°
2026-04-29 08:05 -6.15809 109.26752 16000 ft 258 kts 330°
2026-04-29 08:05 -6.14264 109.25878 15446 ft 249 kts 332°
2026-04-29 08:05 -6.12792 109.25003 15640 ft 243 kts 331°
2026-04-29 08:05 -6.11347 109.24129 15725 ft 242 kts 331°
2026-04-29 08:06 -6.09904 109.23250 15767 ft 243 kts 331°
2026-04-29 08:06 -6.08453 109.22363 15793 ft 245 kts 331°
2026-04-29 08:06 -6.06991 109.21471 15806 ft 247 kts 331°
2026-04-29 08:06 -6.05536 109.20580 15812 ft 249 kts 330°
2026-04-29 08:07 -6.04264 109.19421 15813 ft 252 kts 302°
2026-04-29 08:07 -6.03815 109.17725 15819 ft 257 kts 268°
2026-04-29 08:07 -6.04353 109.16023 15816 ft 259 kts 235°
2026-04-29 08:07 -6.05704 109.14867 15817 ft 257 kts 202°
2026-04-29 08:08 -6.07427 109.14487 15824 ft 253 kts 185°
2026-04-29 08:08 -6.09189 109.14322 15815 ft 254 kts 182°
2026-04-29 08:08 -6.10957 109.14202 15814 ft 255 kts 181°
2026-04-29 08:08 -6.12732 109.14104 15811 ft 256 kts 181°
2026-04-29 08:09 -6.14512 109.14017 15812 ft 257 kts 181°
2026-04-29 08:09 -6.16301 109.13935 15812 ft 257 kts 181°
2026-04-29 08:09 -6.18069 109.13857 15812 ft 257 kts 181°
2026-04-29 08:09 -6.19865 109.13780 15812 ft 258 kts 181°
2026-04-29 08:10 -6.21658 109.13704 15812 ft 258 kts 181°
2026-04-29 08:10 -6.23453 109.13629 15813 ft 258 kts 180°
2026-04-29 08:10 -6.25255 109.13553 15812 ft 259 kts 180°
2026-04-29 08:10 -6.27050 109.13479 15813 ft 259 kts 180°
2026-04-29 08:11 -6.28853 109.13405 15814 ft 259 kts 181°
2026-04-29 08:11 -6.30654 109.13331 15812 ft 259 kts 181°
2026-04-29 08:11 -6.32452 109.13194 15812 ft 259 kts 186°
2026-04-29 08:11 -6.34230 109.12875 15813 ft 260 kts 192°
2026-04-29 08:12 -6.35965 109.12355 15814 ft 261 kts 199°
2026-04-29 08:12 -6.37626 109.11611 15813 ft 262 kts 207°
2026-04-29 08:12 -6.39194 109.10675 15814 ft 262 kts 213°
2026-04-29 08:12 -6.40650 109.09575 15809 ft 262 kts 219°
2026-04-29 08:13 -6.41986 109.08326 15811 ft 263 kts 226°
2026-04-29 08:13 -6.43206 109.06958 15810 ft 263 kts 231°
2026-04-29 08:13 -6.44255 109.05480 15809 ft 263 kts 238°
2026-04-29 08:13 -6.45146 109.03871 15813 ft 263 kts 243°
2026-04-29 08:14 -6.45961 109.02220 15813 ft 264 kts 244°
2026-04-29 08:14 -6.46773 109.00563 15812 ft 264 kts 244°
2026-04-29 08:14 -6.47587 108.98906 15814 ft 264 kts 244°
2026-04-29 08:14 -6.48423 108.97262 15815 ft 264 kts 243°
2026-04-29 08:15 -6.49271 108.95620 15812 ft 264 kts 243°
2026-04-29 08:15 -6.50115 108.93985 15812 ft 264 kts 243°
2026-04-29 08:15 -6.50964 108.92345 15814 ft 264 kts 243°
2026-04-29 08:15 -6.51811 108.90706 15816 ft 264 kts 243°
2026-04-29 08:16 -6.52658 108.89068 15813 ft 264 kts 243°
2026-04-29 08:16 -6.53494 108.87453 15815 ft 264 kts 243°
2026-04-29 08:16 -6.54343 108.85813 15816 ft 264 kts 243°
2026-04-29 08:16 -6.55191 108.84174 15817 ft 264 kts 243°
2026-04-29 08:17 -6.56038 108.82534 15817 ft 264 kts 243°
2026-04-29 08:17 -6.56888 108.80895 15818 ft 264 kts 243°
2026-04-29 08:17 -6.57734 108.79259 15819 ft 264 kts 243°
2026-04-29 08:17 -6.58584 108.77613 15817 ft 264 kts 243°
2026-04-29 08:18 -6.59433 108.75976 15820 ft 264 kts 243°
2026-04-29 08:18 -6.60282 108.74335 15821 ft 264 kts 243°
2026-04-29 08:18 -6.61131 108.72691 15822 ft 264 kts 243°
2026-04-29 08:18 -6.61979 108.71050 15822 ft 264 kts 243°
2026-04-29 08:19 -6.62816 108.69429 15825 ft 264 kts 243°
2026-04-29 08:19 -6.63664 108.67789 15824 ft 265 kts 243°
2026-04-29 08:19 -6.64513 108.66144 15822 ft 265 kts 243°
2026-04-29 08:19 -6.65361 108.64503 15825 ft 265 kts 243°
2026-04-29 08:20 -6.66216 108.62855 15823 ft 265 kts 243°
2026-04-29 08:20 -6.67065 108.61211 15826 ft 265 kts 243°
2026-04-29 08:20 -6.67913 108.59567 15825 ft 265 kts 243°
2026-04-29 08:20 -6.68761 108.57920 15826 ft 265 kts 243°
2026-04-29 08:21 -6.69608 108.56276 15825 ft 264 kts 244°
2026-04-29 08:21 -6.70203 108.54547 15829 ft 262 kts 260°
2026-04-29 08:21 -6.70491 108.52752 15832 ft 263 kts 264°
2026-04-29 08:21 -6.70733 108.50907 15832 ft 264 kts 264°
2026-04-29 08:22 -6.70990 108.49095 15830 ft 265 kts 263°
2026-04-29 08:22 -6.71298 108.47268 15830 ft 265 kts 261°
2026-04-29 08:22 -6.71629 108.45441 15829 ft 265 kts 261°
2026-04-29 08:22 -6.71953 108.43615 15830 ft 265 kts 262°
2026-04-29 08:23 -6.72275 108.41784 15831 ft 266 kts 262°
2026-04-29 08:23 -6.72599 108.39951 15831 ft 266 kts 262°
2026-04-29 08:23 -6.72924 108.38120 15836 ft 266 kts 262°
2026-04-29 08:23 -6.73249 108.36284 15824 ft 266 kts 262°
2026-04-29 08:24 -6.73572 108.34453 15835 ft 266 kts 261°
2026-04-29 08:24 -6.73905 108.32626 15833 ft 266 kts 261°
2026-04-29 08:24 -6.74249 108.30797 15836 ft 266 kts 261°
2026-04-29 08:24 -6.74596 108.28972 15841 ft 266 kts 261°
2026-04-29 08:25 -6.74943 108.27162 15842 ft 266 kts 261°
2026-04-29 08:25 -6.75294 108.25336 15838 ft 266 kts 261°
2026-04-29 08:25 -6.75647 108.23516 15841 ft 265 kts 261°
2026-04-29 08:25 -6.75999 108.21693 15841 ft 265 kts 261°
2026-04-29 08:26 -6.76350 108.19871 15844 ft 265 kts 261°
2026-04-29 08:26 -6.76703 108.18048 15842 ft 265 kts 261°
2026-04-29 08:26 -6.77056 108.16227 15843 ft 265 kts 261°
2026-04-29 08:26 -6.77410 108.14406 15842 ft 265 kts 261°
2026-04-29 08:27 -6.77756 108.12580 15843 ft 264 kts 263°
2026-04-29 08:27 -6.77964 108.10744 15845 ft 265 kts 266°
2026-04-29 08:27 -6.78144 108.08900 15852 ft 265 kts 266°
2026-04-29 08:27 -6.78378 108.07057 15849 ft 266 kts 263°
2026-04-29 08:28 -6.78577 108.05841 15844 ft 265 kts 262°
2026-04-29 08:28 -6.78914 108.04014 15856 ft 265 kts 261°
2026-04-29 08:28 -6.79354 108.01590 15854 ft 266 kts 262°
2026-04-29 08:28 -6.79571 108.00354 15853 ft 266 kts 262°
2026-04-29 08:29 -6.79890 107.98520 15854 ft 266 kts 262°
2026-04-29 08:29 -6.80211 107.96687 15860 ft 266 kts 262°
2026-04-29 08:29 -6.80536 107.94851 15854 ft 266 kts 262°
2026-04-29 08:29 -6.80858 107.93016 15857 ft 266 kts 262°
2026-04-29 08:30 -6.81178 107.91181 15860 ft 267 kts 262°
2026-04-29 08:30 -6.81822 107.87524 15859 ft 267 kts 262°
2026-04-29 08:30 -6.82144 107.85683 15863 ft 268 kts 262°
2026-04-29 08:31 -6.82471 107.83826 15728 ft 272 kts 262°
2026-04-29 08:31 -6.82795 107.81958 15487 ft 271 kts 262°
2026-04-29 08:31 -6.83125 107.80091 15237 ft 270 kts 262°
2026-04-29 08:31 -6.83453 107.78229 15019 ft 270 kts 262°
2026-04-29 08:32 -6.83778 107.76376 14757 ft 269 kts 262°
2026-04-29 08:32 -6.84105 107.74526 14530 ft 268 kts 262°
2026-04-29 08:32 -6.84428 107.72674 14300 ft 268 kts 262°
2026-04-29 08:32 -6.84750 107.70830 14068 ft 265 kts 262°
2026-04-29 08:33 -6.85064 107.69029 13839 ft 257 kts 263°
2026-04-29 08:33 -6.85368 107.67308 13620 ft 250 kts 262°
2026-04-29 08:33 -6.85669 107.65598 13373 ft 246 kts 262°
2026-04-29 08:33 -6.85966 107.63916 13114 ft 242 kts 262°
2026-04-29 08:34 -6.86255 107.62278 12839 ft 231 kts 262°
2026-04-29 08:34 -6.86532 107.60735 12525 ft 218 kts 262°
2026-04-29 08:34 -6.86802 107.59257 12237 ft 216 kts 262°
2026-04-29 08:34 -6.87084 107.57739 11946 ft 225 kts 261°
2026-04-29 08:35 -6.87362 107.56165 11660 ft 231 kts 262°
2026-04-29 08:35 -6.87641 107.54553 11380 ft 236 kts 262°
2026-04-29 08:35 -6.87919 107.52918 11115 ft 238 kts 262°
2026-04-29 08:35 -6.88197 107.51268 10885 ft 239 kts 262°
2026-04-29 08:36 -6.88499 107.49633 10648 ft 237 kts 253°
2026-04-29 08:36 -6.89109 107.48130 10411 ft 233 kts 257°
2026-04-29 08:36 -6.89298 107.46516 10180 ft 233 kts 267°
2026-04-29 08:36 -6.89409 107.44876 9949 ft 235 kts 270°
2026-04-29 08:37 -6.89191 107.43257 9714 ft 234 kts 288°
2026-04-29 08:37 -6.88470 107.41829 9457 ft 227 kts 314°
2026-04-29 08:37 -6.87307 107.40796 9185 ft 220 kts 336°
2026-04-29 08:37 -6.85851 107.40572 8949 ft 213 kts 14°
2026-04-29 08:38 -6.84611 107.41315 8701 ft 210 kts 52°
2026-04-29 08:38 -6.84161 107.42679 8519 ft 209 kts 92°
2026-04-29 08:38 -6.84565 107.44058 8431 ft 203 kts 110°
2026-04-29 08:38 -6.85160 107.45322 8397 ft 197 kts 120°
2026-04-29 08:39 -6.85885 107.46446 8375 ft 188 kts 116°
2026-04-29 08:39 -6.86489 107.47592 8366 ft 183 kts 114°
2026-04-29 08:39 -6.87059 107.48720 8360 ft 178 kts 114°
2026-04-29 08:39 -6.87614 107.49834 8362 ft 180 kts 114°
2026-04-29 08:40 -6.88198 107.50962 8365 ft 183 kts 118°
2026-04-29 08:40 -6.89026 107.51960 8376 ft 191 kts 132°
2026-04-29 08:40 -6.90026 107.52873 8376 ft 199 kts 137°
2026-04-29 08:40 -6.91116 107.53754 8378 ft 203 kts 139°
2026-04-29 08:41 -6.92221 107.54622 8372 ft 203 kts 139°
2026-04-29 08:41 -6.93352 107.55513 8148 ft 208 kts 139°
2026-04-29 08:41 -6.94491 107.56431 7902 ft 212 kts 137°
2026-04-29 08:41 -6.95653 107.57404 7662 ft 221 kts 137°
2026-04-29 08:42 -6.96836 107.58407 7420 ft 222 kts 137°
2026-04-29 08:42 -6.98001 107.59398 7191 ft 215 kts 135°
2026-04-29 08:42 -6.98825 107.60613 6949 ft 210 kts 113°
2026-04-29 08:42 -6.99402 107.61967 6733 ft 210 kts 110°
2026-04-29 08:43 -6.99928 107.63284 6502 ft 195 kts 110°
2026-04-29 08:43 -7.00425 107.64511 6257 ft 184 kts 110°
2026-04-29 08:43 -7.00914 107.65691 6018 ft 185 kts 111°
2026-04-29 08:43 -7.01417 107.66872 5771 ft 183 kts 111°
2026-04-29 08:44 -7.01934 107.68072 5511 ft 189 kts 111°
2026-04-29 08:44 -7.02242 107.69279 5283 ft 173 kts 90°
2026-04-29 08:44 -7.02241 107.70522 5061 ft 182 kts 88°
2026-04-29 08:44 -7.02181 107.71801 4845 ft 186 kts 77°
2026-04-29 08:45 -7.01746 107.72616 4690 ft 189 kts 44°
2026-04-29 08:45 -7.00601 107.73181 4481 ft 192 kts 16°
2026-04-29 08:45 -6.99272 107.73432 4248 ft 196 kts
2026-04-29 08:45 -6.97899 107.73513 4015 ft 199 kts
2026-04-29 08:46 -6.96530 107.73446 3756 ft 190 kts 345°
2026-04-29 08:46 -6.95516 107.72677 3524 ft 189 kts 308°
2026-04-29 08:46 -6.94832 107.71528 3364 ft 193 kts 298°
2026-04-29 08:46 -6.94293 107.70284 3327 ft 195 kts 293°
2026-04-29 08:47 -6.93958 107.69310 3283 ft 191 kts 290°
2026-04-29 08:47 -6.93534 107.68054 3308 ft 187 kts 290°
2026-04-29 08:47 -6.93155 107.66868 3268 ft 171 kts 289°
2026-04-29 08:47 -6.92841 107.65870 3248 ft 162 kts 290°
2026-04-29 08:48 -6.92512 107.64812 3271 ft 155 kts 290°
2026-04-29 08:48 -6.92188 107.63814 3273 ft 147 kts 291°
2026-04-29 08:48 -6.91861 107.62842 3272 ft 145 kts 291°
2026-04-29 08:48 -6.91540 107.61924 3248 ft 141 kts 291°
2026-04-29 08:49 -6.91248 107.61023 3103 ft 127 kts 293°
2026-04-29 08:49 -6.90953 107.60229 2847 ft 117 kts 292°
2026-04-29 08:49 -6.90673 107.59419 2669 ft 122 kts 287°
2026-04-29 08:49 -6.90404 107.58616 2468 ft 118 kts 291°
2026-04-29 08:50 -6.90162 107.57911 2421 ft 97 kts 288°
2026-04-29 08:50 -6.90042 107.57554 2415 ft 18 kts 289°
2026-04-29 08:50 -6.90034 107.57494 2408 ft 6 kts 272°
2026-04-29 08:50 -6.90024 107.57491 2408 ft 3 kts
2026-04-29 08:51 -6.90034 107.57545 2419 ft 18 kts 118°
2026-04-29 08:51 -6.90090 107.57696 2412 ft 17 kts 125°
2026-04-29 08:51 -6.90151 107.57701 2420 ft 11 kts 197°
2026-04-29 08:51 -6.90226 107.57675 2408 ft 9 kts 194°
2026-04-29 08:52 -6.90247 107.57704 2412 ft 6 kts 98°
2026-04-29 08:52 -6.90253 107.57738 2408 ft 0 kts 114°
2026-04-29 08:52 -6.90255 107.57738 2408 ft 0 kts 151°
2026-04-29 08:52 -6.90265 107.57736 2409 ft 2 kts 187°
2026-04-29 08:53 -6.90266 107.57736 2412 ft 0 kts 186°